Regional Weather Roundup
Issued by NWS

Home | Current Version | Previous Version | Graphics & Text | Print | Product List | Glossary On
Versions: 1 2 3 4 5 6 7 8 9 10 11 12 13 14 15 16 17 18 19 20 21 22 23 24 25 26 27 28 29 30 31 32 33 34 35 36 37 38 39 40 41 42 43 44 45 46 47 48 49 50
901
ASUS43 KBIS 291731
RWRND
NORTH DAKOTA REGIONAL WEATHER ROUNDUP
NATIONAL WEATHER SERVICE EASTERN NORTH DAKOTA/GRAND FORKS ND
1200 PM CDT MON MAY 29 2017

  NOTE: "FAIR" INDICATES FEW OR NO CLOUDS BELOW 12,000 FEET WITH NO
  SIGNIFICANT WEATHER AND/OR OBSTRUCTIONS TO VISIBILITY.

NDZ001>003-009>011-017-291800-
...NORTHWEST NORTH DAKOTA...

CITY           SKY/WX    TMP DP  RH WIND       PRES   REMARKS
WILLISTON      PTSUNNY   62  37  39 NW25G31   30.12F
MINOT          CLOUDY    59  39  47 NW23G32   30.01S
MINOT AFB      PTSUNNY   57  41  55 NW23G30   30.00S
$$

NDZ018>021-031>035-040>046-291800-
...SOUTHWEST NORTH DAKOTA...

CITY           SKY/WX    TMP DP  RH WIND       PRES   REMARKS
BISMARCK       CLOUDY    60  41  49 NW23G30   30.04R
DICKINSON      FAIR      60  34  37 NW21G30   30.09S
GARRISON         N/A     57  38  48 N29G39    30.02F
HETTINGER      FAIR      61  36  39 NW21G31   30.12S
$$

NDZ004>008-012>016-024-026-027-054-291800-
...NORTHEAST NORTH DAKOTA...

CITY           SKY/WX    TMP DP  RH WIND       PRES   REMARKS
GRAND FORKS    CLOUDY    61  50  67 NW16G25   29.85F
GRAND FORKS AF PTSUNNY   59  48  67 NW21      29.86S
DEVILS LAKE    CLOUDY    55  42  61 NW20G30   29.92R
$$

NDZ022-023-025-028>030-036>039-047>053-291800-
...SOUTHEAST NORTH DAKOTA...

CITY           SKY/WX    TMP DP  RH WIND       PRES   REMARKS
JAMESTOWN      LGT RAIN  55  47  74 NW16G26   29.94S
FARGO          CLOUDY    56  49  77 N17       29.88S
WAHPETON       CLOUDY    52  46  82 NW16G22   29.91R
$$




USA.gov is the U.S. government's official web portal to all federal, state and local government web resources and services.